www.pogodaiklimat.ru

Погода и климат >> Архив погоды >> Гана >> Bole


ПОГОДА в Bole

  • Прогноз погоды в Bole
  • Монитор погоды в Bole
  • Климат города

АРХИВ ПОГОДЫ в Bole

Время (UTC), дата Ветер
(напр.,м/с)
 
Видим.   Явления Облачность Т
(С)
Тd
(С)
f
(%)
Тe
(С)
Тes
(С)
Комфортность P
(гПа)
Po
(гПа)
Тmin
(С)
Tmax
(С)
R
(мм)
R24
(мм)
S
(см)
00 20.04 ЮЗ 2 15 км ясно +30.0 +21.6 61 +38 +38 очень
душно
1010.0 1010.0
06 20.04 ЮЗ 2 15 км 4/0
[Ac trans Ci sp]
+26.5 +22.5 79 +35 +35 очень
душно
1010.2 1010.0 +26.5
12 20.04 З 2 18 км 1/1 480 м
[Cu med, cong Ci fib]
+33.5 +23.3 55 +44 +64 опасность
перегрева
1009.7 1010.0
15 20.04 СЗ 1 18 км 4/4 480 м
[Cu med, cong]
+36.7 +22.7 45 +46 +55 опасность
перегрева
1006.2 1006.0
18 20.04 штиль 0 18 км 5/4 360 м
[Cu Sc Ci sp]
+35.0 +22.6 49 +45 +45 опасность
перегрева
1006.4 1006.0 +36.7
21 20.04 ЮЗ 1 16 км зарница 6/1 900 м
[Cb cap Ci sp]
+29.5 +20.9 60 +37 +37 очень
душно
1009.0 1009.0
00 21.04 ЮЗ 2 16 км 5/0
[Ci sp]
+28.2 +22.4 71 +37 +37 очень
душно
1010.4 1010.0
03 21.04 Ю 1 16 км 5/0
[Ci sp]
+27.5 +22.6 75 +36 +36 очень
душно
1009.7 1010.0
06 21.04 ЮЗ 1 16 км 8/3 360 м
[Sc Ci sp]
+26.2 +21.9 77 +34 +34 очень
душно
1010.4 1010.0 +26.2
12 21.04 ЮЗ 2 18 км 4/1 450 м
[Cu hum Ci sp]
+33.0 +22.7 55 +43 +63 опасность
перегрева
1010.4 1010.0
15 21.04 ЮЗ 1 18 км 8/5 450 м
[Cu med, cong Ac trans Ci sp]
+35.2 +24.1 53 +47 +52 опасность
перегрева
1007.7 1008.0
06 22.04 ЮЗ 2 15 км 4/0
[Ac trans Ci sp]
+25.0 +22.6 87 +33 +33 очень
душно
1014.1 1014.0 +25.0
12 22.04 З 2 18 км 8/1 450 м
[Cu hum Cs]
+33.5 +22.5 53 +43 +61 опасность
перегрева
1010.7 1011.0
15 22.04 СВ 1 18 км 6/3 480 м
[Cu med, cong Ac trans Ci sp]
+35.5 +20.7 42 +42 +50 опасность
перегрева
1007.9 1008.0
18 22.04 ЮЗ 1 18 км 8/0
[Ac trans]
+34.5 +18.5 39 +39 +39 очень
душно
1007.8 1008.0 +35.7
21 22.04 Ю 1 15 км 6/0
[Ac trans]
+32.1 +20.7 51 +39 +39 очень
душно
1011.0 1011.0
00 23.04 Ю 2 15 км 4/0
[Ci sp]
+30.0 +20.8 58 +37 +37 очень
душно
1011.7 1012.0
09 23.04 З 1 13 км ясно +29.0 +22.2 67 +38 +50 очень
душно
1014.4 1014.0
12 23.04 З 3 18 км 4/3 450 м
[Cu hum Ci sp]
+34.0 +22.3 51 +43 +56 опасность
перегрева
1012.6 1013.0
18 23.04 СЗ 2 18 км ясно +35.1 +21.8 46 +43 +43 опасность
перегрева
1007.5 1008.0 +36.6
21 23.04 штиль 0 15 км ясно +31.5 +22.6 59 +41 +41 опасность
перегрева
1011.0 1011.0
00 24.04 штиль 0 15 км зарница 3/1 900 м
[Cb cap Ac trans]
+29.7 +23.0 67 +40 +40 очень
душно
1012.2 1012.0
09 24.04 ЮЗ 1 15 км {гроза, дождь} 9/5 360 м
[Sc Ac trans]
+25.5 +22.3 82 +33 +37 очень
душно
1015.5 1016.0
12 24.04 СЗ 2 18 км {гроза, дождь} 8/0
[Ac trans]
+31.5 +21.2 54 +39 +51 опасность
солнечного
удара
1012.6 1013.0 0.0
15 24.04 СЗ 1 18 км 8/0
[Ac trans]
+33.0 +19.3 44 +38 +46 очень
душно
1009.1 1009.0
18 24.04 СВ 1 18 км 5/0
[Ac trans Ci sp]
+34.0 +20.4 45 +41 +41 опасность
перегрева
1008.1 1008.0 +35.0
21 24.04 штиль 0 14 км 4/0
[Ci sp]
+29.9 +22.6 65 +39 +39 очень
душно
1011.5 1012.0
03 25.04 Ю 1 14 км 5/0
[Ac trans]
+27.3 +22.0 73 +35 +35 очень
душно
1012.7 1013.0
09 25.04 ЮЗ 1 17 км ясно +29.4 +22.8 68 +39 +51 опасность
солнечного
удара
1012.6 1013.0
12 25.04 ЮЗ 2 17 км 4/4 450 м
[Cu med, cong]
+29.6 +24.2 73 +41 +56 опасность
перегрева
1011.1 1011.0
15 25.04 СВ 1 18 км 5/5 450 м
[Cu med, cong]
+34.3 +23.0 52 +44 +52 опасность
перегрева
1007.8 1008.0
21 25.04 ЮЗ 1 15 км зарница 6/1 900 м
[Cb cap Ac trans Ci sp]
+31.6 +22.7 59 +41 +41 опасность
перегрева
1010.8 1011.0
09 26.04 ЮЗ 1 15 км 9/0
[Ac trans]
+25.5 +22.3 82 +33 +39 очень
душно
1013.1 1013.0

 

Местоположение метеостанции Bole (Гана): широта 9.03 долгота -2.48 высота над уровнем моря 301 м.

В архиве по умолчанию представлена погода в Bole за последнюю неделю. Архивные данные за месяц целиком и за предыдущие месяцы, начиная с января 2011 года, Вы можете получить, выбрав интересующий диапазон дат из раскрывающегося списка и нажав кнопку "Ввод!".

Внимание! Время в таблицах - всемирное. Для получения местного времени необходимо прибавить поправку, которая в Bole равна 1 ч.

Смотрите также архив погоды в соседних городах и на ближайших метеорологических станциях:

Погода в Wa (Гана) (113 км)
Погода в Bondoukou (Кот-д'Ивуар) (114 км)
Погода в Wenchi (Гана) (148 км)
Погода в Gaoua (Буркина-Фасо) (164 км)
Погода в Tamale (Гана) (186 км)
Погода в Sunyani (Гана) (190 км)
Погода в Navrongo (Гана) (257 км)
Погода в Yendi (Гана) (274 км)
Погода в Kumasi (Гана) (275 км)
Погода в Po (Буркина-Фасо) (277 км)

Пояснения к столбцам:

Ветер - указаны скорость ветра в м/с - средняя за 10 мин, порывы в срок и между сроками (в фигурных скобках) и направление, откуда дует ветер: С - северный, СВ - северо-восточный, В - восточный, ЮВ - юго-восточный, Ю - южный, ЮЗ - юго-западный, З - западный, СЗ - северо-западный.
Видимость - горизонтальная дальность видимости в метрах или километрах. При видимости от 1 до 10 км при отсутствии осадков обычно наблюдается дымка, при ухудшении видимости до 1 км и менее - туман. В сухую погоду видимость может ухудшаться дымом, пылью или мглою.
Явления - указаны атмосферные явления, наблюдавшиеся в срок или в последний час перед сроком; фигурными скобками обозначены явления, наблюдавшиеся между сроками (за 1-3 часа до срока); квадратными скобками обозначены град или гололедные отложения с указанием их диаметра в мм.
Облачность - указаны через наклонную черту общая и нижняя облачность в баллах и высота нижней границы облаков в метрах; квадратными скобками обозначены формы облаков: Ci - перистые, Cs - перисто-слоистые, Cc - перисто-кучевые, Ac - высококучевые, As - высокослоистые, Sc - слоисто-кучевые, Ns - слоисто-дождевые, Cu - кучевые, Cb - кучево-дождевые. Подробнее классификацию облаков см. в Атласе облаков (PDF).
T - Температура воздуха - температура, измеренная на высоте 2 м над землей.
Td - Температура точки росы - температура, при понижении до которой содержащийся в воздухе водяной пар достигнет насыщения.
f - Относительная влажность воздуха - влажноcть воздуха, измеренная на высоте 2 м над землей.
Te - Эффективная температура - температура, которую ощущает одетый по сезону человек в тени. Характеристика душности погоды. При расчете учитывается влияние влажности воздуха и скорости ветра на теплоощущения человека.
Tes - Эффективная температура на солнце - температура, которую ощущает человек, с поправкой на солнечный нагрев. Характеристика знойности погоды. Зависит от высоты солнца над горизонтом, облачности и скорости ветра. Ночью, в пасмурную погоду, а также при ветре 12 м/с и более поправка равна нулю.
P - Атмосферное давление - приведенное к уровню моря атмосферное давление.
Po - Атмосферное давление - измеренное на уровне метеостанции атмосферное давление.
Tmin - Минимальная температура - минимум температуры воздуха на высоте 2 м над землей.
Tmax - Максимальная температура - максимум температуры воздуха на высоте 2 м над землей.
R - Количество осадков - Количество выпавших осадков за период времени, мм. При наведении курсора мыши на число - период времени, за который выпало указанное количество осадков.
R24 - Количество осадков - Количество выпавших осадков за 24 часа, мм.
S - Снежный покров - Высота снежного покрова, см. При наведении курсора мыши на число - состояние снежного покрова и степень покрытия местности в баллах.